ONEWEB-0297 (49086 NORAD) Tracking and Keplerian Element Data

This shows tracking and keplerian element data for the satellite.

Feedback or suggestion? Click here.




ElementValue
Catalog49086
NameONEWEB-0297
Epoch Orbit951
Epoch Day288.25002315
Epoch Year2021
RAAN348.1249
Inclination87.5368
Eccentricity0.0020204
Argument of Perigee100.2116
Mean Anonmoly212.4749
Mean Motion14.85862687
Decay Rate-0.00048614
L11 49086U 21075M 21288.25002315 -.00048614 00000-0 -56118-2 0 9999
L22 49086 87.5368 348.1249 0020204 100.2116 212.4749 14.85862687 9515

Live tracking and technical data element details for ONEWEB-0297 (NORAD 49086). ONEWEB-0297 can be tracked NOW for your location showing map with azimuth and elevation plus other details from your city location.

Track the satellite on the map from your city or location and see movement details for azimuth, elevation, latitude, longitude, range, height, and movement on the map or in text.







IsCatalogInMostPopularTable: catalog: 49086, numindb: 12
Update: records affected: 1



GetName: 49086 ONEWEB-0297

Hit Count: updated at: Sun, 17 Oct 2021 08:37:20 GMT